Maple Lake, MN

4:51 AM CDT on May 30, 2017 (GMT -0500)
Maple Lake Municipal

Weather History for KMGG - July, 2013

Change the Weather History Date:

Tuesday, July 23, 2013

  Actual Average (KSTC) Record (KSTC)
Temperature  
Mean Temperature 66 °F -  
Max Temperature 76 °F 81 °F 107 °F (1934)
Min Temperature 57 °F 57 °F 45 °F (1978)
Cooling Degree Days 2    
Growing Degree Days 16 (Base 50)    
Moisture  
Dew Point 56 °F    
Average Humidity 72    
Maximum Humidity 96    
Minimum Humidity 48    
Precipitation  
Precipitation 0.00 in - - ()
Sea Level Pressure  
Sea Level Pressure 29.99 in    
Wind  
Wind Speed 5 mph (North)    
Max Wind Speed 12 mph    
Max Gust Speed -    
Visibility 10 miles    
Events      
Averages and records for this station are not official NWS values.
T = Trace of Precipitation, MM = Missing Value Source: NWS Daily Summary

Daily Weather History Graph

Daily Weather History Graph

Search for Another Location

Airport or City:

Trip Planner

Search our weather history database for the weather conditions in past years. The results will help you decide how hot, cold, wet, or windy it might be!

Date:

Astronomy

Jul. 23, 2013 Rise Set
Actual Time 5:50 AM CDT 8:53 PM CDT
Civil Twilight 5:15 AM CDT 9:28 PM CDT
Nautical Twilight 4:30 AM CDT 10:13 PM CDT
Astronomical Twilight 3:36 AM CDT 11:06 PM CDT
Moon 9:13 PM CDT (7/23) 7:06 AM CDT (7/23)
Length of Visible Light 16h 12m
Length of Day
15h 02m
Full, 99% of the Moon is Illuminated
Jul 23
Full
Jul 29
Last Quarter
Aug 6
New
Aug 14
First Quarter
Aug 20
Full

Hourly Weather History & Observations

Time (CDT) Temp. Dew Point Humidity Pressure Visibility Wind Dir Wind Speed Gust Speed Precip Events Conditions
12:16 AM 65.3 °F 58.3 °F 78% 29.90 in 10.0 mi NW 5.8 mph - N/A   Overcast
12:36 AM 63.9 °F 58.1 °F 81% 29.90 in 10.0 mi NNW 4.6 mph - N/A   Mostly Cloudy
12:56 AM 63.0 °F 57.4 °F 82% 29.90 in 10.0 mi NW 5.8 mph - N/A   Scattered Clouds
1:16 AM 62.8 °F 57.2 °F 82% 29.90 in 10.0 mi NNW 5.8 mph - N/A   Clear
1:37 AM 61.9 °F 56.8 °F 84% 29.90 in 10.0 mi NNW 4.6 mph - N/A   Clear
1:56 AM 62.1 °F 56.8 °F 83% 29.91 in 10.0 mi NW 4.6 mph - N/A   Clear
2:16 AM 62.1 °F 57.2 °F 84% 29.90 in 10.0 mi NW 5.8 mph - N/A   Clear
2:36 AM 61.7 °F 57.2 °F 85% 29.91 in 10.0 mi NNW 8.1 mph - N/A   Clear
2:56 AM 61.5 °F 56.7 °F 84% 29.91 in 10.0 mi NNW 8.1 mph - N/A   Clear
3:16 AM 60.8 °F 56.5 °F 86% 29.92 in 10.0 mi NNW 5.8 mph - N/A   Clear
3:36 AM 59.9 °F 56.5 °F 88% 29.92 in 10.0 mi NNW 4.6 mph - N/A   Clear
3:56 AM 59.2 °F 56.3 °F 90% 29.92 in 10.0 mi NNW 4.6 mph - N/A   Clear
4:16 AM 59.2 °F 56.3 °F 90% 29.93 in 10.0 mi NW 4.6 mph - N/A   Clear
4:36 AM 58.8 °F 55.8 °F 90% 29.94 in 10.0 mi NW 4.6 mph - N/A   Clear
4:56 AM 58.3 °F 55.6 °F 91% 29.94 in 10.0 mi NNW 4.6 mph - N/A   Clear
5:16 AM 58.5 °F 55.6 °F 90% 29.95 in 10.0 mi NNW 5.8 mph - N/A   Clear
5:36 AM 58.3 °F 55.6 °F 91% 29.94 in 10.0 mi NNW 4.6 mph - N/A   Clear
5:56 AM 57.6 °F 55.4 °F 92% 29.95 in 10.0 mi North 3.5 mph - N/A   Clear
6:16 AM 58.1 °F 55.8 °F 92% 29.95 in 10.0 mi North 4.6 mph - N/A   Clear
6:36 AM 58.3 °F 55.9 °F 92% 29.95 in 10.0 mi North 3.5 mph - N/A   Clear
6:56 AM 59.9 °F 56.5 °F 88% 29.97 in 10.0 mi North 5.8 mph - N/A   Clear
7:16 AM 59.9 °F 56.5 °F 88% 29.99 in 10.0 mi WNW 4.6 mph - N/A   Clear
7:36 AM 60.8 °F 56.8 °F 87% 30.00 in 10.0 mi NNW 4.6 mph - N/A   Clear
7:56 AM 62.4 °F 57.2 °F 83% 30.01 in 10.0 mi NNW 4.6 mph - N/A   Clear
8:16 AM 63.3 °F 57.6 °F 81% 30.01 in 10.0 mi North 3.5 mph - N/A   Clear
8:36 AM 63.7 °F 56.7 °F 78% 30.01 in 10.0 mi NNE 4.6 mph - N/A   Clear
8:56 AM 64.4 °F 56.8 °F 76% 30.00 in 10.0 mi NNE 6.9 mph - N/A   Clear
9:16 AM 66.2 °F 57.2 °F 73% 30.00 in 10.0 mi NNE 9.2 mph - N/A   Clear
9:36 AM 66.9 °F 56.7 °F 70% 30.01 in 10.0 mi NNE 5.8 mph - N/A   Clear
9:56 AM 67.3 °F 56.1 °F 67% 30.01 in 10.0 mi North 8.1 mph - N/A   Clear
10:16 AM 68.9 °F 57.4 °F 67% 30.02 in 10.0 mi North 8.1 mph - N/A   Clear
10:36 AM 68.9 °F 56.7 °F 65% 30.02 in 10.0 mi NNE 9.2 mph - N/A   Clear
10:56 AM 69.3 °F 57.4 °F 66% 30.03 in 10.0 mi North 6.9 mph - N/A   Scattered Clouds
11:17 AM 70.0 °F 57.4 °F 64% 30.03 in 10.0 mi NNW 6.9 mph - N/A   Scattered Clouds
11:36 AM 70.3 °F 55.2 °F 59% 30.03 in 10.0 mi North 6.9 mph - N/A   Scattered Clouds
11:56 AM 71.4 °F 55.6 °F 57% 30.02 in 10.0 mi North 10.4 mph - N/A   Clear
12:16 PM 71.4 °F 56.1 °F 58% 30.03 in 10.0 mi NNE 6.9 mph - N/A   Clear
12:36 PM 72.1 °F 55.6 °F 56% 30.03 in 10.0 mi North 5.8 mph - N/A   Clear
12:56 PM 72.0 °F 55.0 °F 55% 30.02 in 10.0 mi North 9.2 mph - N/A   Clear
1:16 PM 72.9 °F 55.8 °F 55% 30.02 in 10.0 mi North 11.5 mph - N/A   Clear
1:36 PM 73.4 °F 54.9 °F 52% 30.02 in 10.0 mi NNE 9.2 mph - N/A   Clear
1:56 PM 73.2 °F 55.2 °F 53% 30.02 in 10.0 mi Calm Calm - N/A   Scattered Clouds
2:16 PM 73.8 °F 55.2 °F 52% 30.02 in 10.0 mi North 4.6 mph - N/A   Clear
2:36 PM 73.9 °F 52.9 °F 48% 30.02 in 10.0 mi NE 9.2 mph - N/A   Clear
2:56 PM 74.5 °F 53.4 °F 48% 30.02 in 10.0 mi NNW 5.8 mph - N/A   Clear
3:16 PM 74.7 °F 55.4 °F 51% 30.02 in 10.0 mi NNW 5.8 mph - N/A   Clear
3:36 PM 75.4 °F 55.2 °F 49% 30.02 in 10.0 mi North 4.6 mph - N/A   Clear
3:56 PM 75.7 °F 56.5 °F 51% 30.02 in 10.0 mi North 5.8 mph - N/A   Clear
4:16 PM 75.9 °F 55.4 °F 49% 30.01 in 10.0 mi North 8.1 mph - N/A   Clear
4:36 PM 75.2 °F 55.0 °F 49% 30.00 in 10.0 mi North 4.6 mph - N/A   Scattered Clouds
4:56 PM 76.3 °F 56.1 °F 50% 30.01 in 10.0 mi East 3.5 mph - N/A   Mostly Cloudy
5:16 PM 76.3 °F 55.8 °F 49% 30.01 in 10.0 mi ENE 5.8 mph - N/A   Mostly Cloudy
5:36 PM 73.8 °F 55.2 °F 52% 30.01 in 10.0 mi NE 5.8 mph - N/A   Mostly Cloudy
5:56 PM 72.3 °F 55.2 °F 55% 30.01 in 10.0 mi Calm Calm - N/A   Scattered Clouds
6:16 PM 74.1 °F 55.0 °F 51% 30.01 in 10.0 mi NNE 3.5 mph - N/A   Clear
6:36 PM 75.2 °F 55.8 °F 51% 30.01 in 10.0 mi North 4.6 mph - N/A   Scattered Clouds
6:56 PM 73.9 °F 56.7 °F 55% 30.01 in 10.0 mi NE 4.6 mph - N/A   Mostly Cloudy
7:16 PM 72.9 °F 55.8 °F 55% 30.01 in 10.0 mi NNE 3.5 mph - N/A   Scattered Clouds
7:36 PM 72.5 °F 55.6 °F 55% 30.01 in 10.0 mi NNE 4.6 mph - N/A   Clear
7:56 PM 71.6 °F 56.8 °F 60% 30.01 in 10.0 mi NE 3.5 mph - N/A   Clear
8:16 PM 70.5 °F 57.0 °F 62% 30.02 in 10.0 mi Calm Calm - N/A   Clear
8:36 PM 69.4 °F 56.5 °F 63% 30.02 in 10.0 mi NE 3.5 mph - N/A   Clear
8:56 PM 67.1 °F 56.3 °F 68% 30.02 in 10.0 mi ENE 3.5 mph - N/A   Clear
9:16 PM 66.2 °F 56.5 °F 71% 30.02 in 10.0 mi Calm Calm - N/A   Clear
9:36 PM 63.7 °F 57.4 °F 80% 30.02 in 10.0 mi Calm Calm - N/A   Clear
9:56 PM 61.9 °F 57.4 °F 85% 30.03 in 10.0 mi Calm Calm - N/A   Clear
10:16 PM 59.9 °F 57.4 °F 91% 30.03 in 10.0 mi Calm Calm - N/A   Clear
10:36 PM 59.4 °F 57.4 °F 93% 30.04 in 10.0 mi Calm Calm - N/A   Clear
10:56 PM 58.5 °F 56.5 °F 93% 30.05 in 10.0 mi Calm Calm - N/A   Clear
11:16 PM 59.2 °F 57.0 °F 93% 30.04 in 10.0 mi Calm Calm - N/A   Clear
11:36 PM 57.7 °F 56.5 °F 96% 30.04 in 10.0 mi Calm Calm - N/A   Clear
11:57 PM 58.5 °F 57.2 °F 96% 30.04 in 10.0 mi Calm Calm - N/A   Clear